When you browse on this site, cookies collect data to enhance your experience and personalize the content and advertising you see.
Visit our Privacy Policy to learn more. By continuing to use the site, you agree to this use of cookies and data.
  • en Suisse
  • Liste des pays
  • À 7 jours
  • Température de l'eau
  • Carte météo
  • Widgets météo
  • user-avatar
    Se connecter

    Météo par heure à Yanghou

    Ce jour, 29 Mai, Vendredi

    Heure Température Précipitation Vent Pression Humidité
    00:00 +22°C° 0 mm 1 m/s 727 mmHg 96%
    01:00 +22°C° 0 mm 1 m/s 727 mmHg 96%
    02:00 +22°C° 0 mm 1 m/s 726 mmHg 95%
    03:00 +20°C° 0 mm 0 m/s 726 mmHg 95%
    04:00 +20°C° 0 mm 0 m/s 726 mmHg 96%
    05:00 +20°C° 0 mm 0 m/s 726 mmHg 96%
    06:00 +21°C° 0 mm 0 m/s 726 mmHg 92%
    07:00 +24°C° 0 mm 1 m/s 726 mmHg 87%
    08:00 +26°C° 0 mm 1 m/s 727 mmHg 83%
    09:00 +27°C° 0 mm 1 m/s 727 mmHg 77%
    10:00 +29°C° 0 mm 1 m/s 727 mmHg 71%
    11:00 +30°C° 0 mm 1 m/s 726 mmHg 65%
    12:00 +31°C° 0 mm 1 m/s 726 mmHg 64%
    13:00 +31°C° 0 mm 2 m/s 725 mmHg 63%
    14:00 +32°C° 0 mm 2 m/s 725 mmHg 60%
    15:00 +30°C° 0.4 mm 2 m/s 725 mmHg 68%
    16:00 +29°C° 0.4 mm 1 m/s 724 mmHg 76%
    17:00 +28°C° 0.4 mm 1 m/s 724 mmHg 84%
    18:00 +27°C° 0.8 mm 1 m/s 724 mmHg 88%
    19:00 +25°C° 0.8 mm 1 m/s 725 mmHg 93%
    20:00 +24°C° 0.8 mm 1 m/s 725 mmHg 97%
    21:00 +24°C° 0.6 mm 1 m/s 725 mmHg 97%
    22:00 +24°C° 0.6 mm 1 m/s 726 mmHg 98%
    23:00 +24°C° 0.6 mm 1 m/s 726 mmHg 98%

    Demain, 30 Mai, Samedi

    Heure Température Précipitation Vent Pression Humidité
    00:00 +24°C° 0.4 mm 1 m/s 725 mmHg 98%
    01:00 +23°C° 0.4 mm 1 m/s 725 mmHg 98%
    02:00 +23°C° 0.4 mm 1 m/s 725 mmHg 98%
    03:00 +23°C° 0.2 mm 1 m/s 725 mmHg 98%
    04:00 +23°C° 0.2 mm 1 m/s 725 mmHg 98%
    05:00 +23°C° 0.2 mm 1 m/s 725 mmHg 98%
    06:00 +24°C° 0.2 mm 1 m/s 725 mmHg 97%
    07:00 +25°C° 0.2 mm 1 m/s 725 mmHg 95%
    08:00 +26°C° 0.2 mm 1 m/s 726 mmHg 93%
    09:00 +27°C° 0.2 mm 1 m/s 726 mmHg 86%
    10:00 +29°C° 0.2 mm 1 m/s 726 mmHg 78%
    11:00 +31°C° 0.2 mm 1 m/s 726 mmHg 70%
    12:00 +31°C° 1.2 mm 1 m/s 725 mmHg 75%
    13:00 +30°C° 1.2 mm 1 m/s 725 mmHg 80%
    14:00 +30°C° 1.2 mm 1 m/s 725 mmHg 85%
    15:00 +29°C° 2.9 mm 1 m/s 725 mmHg 89%
    16:00 +25°C° 2.9 mm 0 m/s 725 mmHg 93%
    17:00 +24°C° 2.9 mm 0 m/s 724 mmHg 97%
    18:00 +23°C° 0.4 mm 0 m/s 725 mmHg 97%
    19:00 +23°C° 0.4 mm 0 m/s 725 mmHg 97%
    20:00 +23°C° 0.4 mm 0 m/s 725 mmHg 96%
    21:00 +22°C° 0.3 mm 0 m/s 726 mmHg 97%
    22:00 +22°C° 0.3 mm 0 m/s 726 mmHg 97%
    23:00 +22°C° 0.3 mm 0 m/s 726 mmHg 97%

    Après-demain, 31 Mai, Dimanche

    Heure Température Précipitation Vent Pression Humidité
    00:00 +22°C° 0.3 mm 0 m/s 726 mmHg 97%
    01:00 +22°C° 0.3 mm 0 m/s 726 mmHg 97%
    02:00 +22°C° 0.3 mm 0 m/s 726 mmHg 97%
    03:00 +22°C° 0.1 mm 0 m/s 726 mmHg 97%
    04:00 +22°C° 0.1 mm 0 m/s 726 mmHg 97%
    05:00 +22°C° 0.1 mm 0 m/s 726 mmHg 98%
    06:00 +23°C° 0.3 mm 0 m/s 726 mmHg 96%
    07:00 +24°C° 0.3 mm 0 m/s 726 mmHg 94%
    08:00 +25°C° 0.3 mm 0 m/s 727 mmHg 92%
    09:00 +26°C° 1.1 mm 0 m/s 727 mmHg 90%
    10:00 +27°C° 1.1 mm 0 m/s 727 mmHg 87%
    11:00 +28°C° 1.1 mm 0 m/s 727 mmHg 84%
    12:00 +27°C° 1.2 mm 0 m/s 726 mmHg 86%
    13:00 +26°C° 1.2 mm 0 m/s 726 mmHg 89%
    14:00 +27°C° 1.2 mm 1 m/s 725 mmHg 92%
    15:00 +27°C° 0.6 mm 1 m/s 725 mmHg 93%
    16:00 +26°C° 0.6 mm 1 m/s 725 mmHg 94%
    17:00 +26°C° 0.6 mm 1 m/s 724 mmHg 95%
    18:00 +26°C° 0.6 mm 1 m/s 725 mmHg 95%
    19:00 +23°C° 0.6 mm 0 m/s 725 mmHg 95%
    20:00 +23°C° 0.6 mm 0 m/s 725 mmHg 95%
    21:00 +23°C° 0.9 mm 0 m/s 725 mmHg 95%
    22:00 +22°C° 0.9 mm 0 m/s 726 mmHg 96%
    23:00 +22°C° 0.9 mm 0 m/s 726 mmHg 96%

    1 Juin, Lundi

    Heure Température Précipitation Vent Pression Humidité
    00:00 +22°C° 1.3 mm 0 m/s 726 mmHg 97%
    01:00 +22°C° 1.3 mm 0 m/s 726 mmHg 98%
    02:00 +22°C° 1.3 mm 0 m/s 726 mmHg 98%
    03:00 +22°C° 0.6 mm 0 m/s 725 mmHg 98%
    04:00 +22°C° 0.6 mm 0 m/s 725 mmHg 98%
    05:00 +22°C° 0.6 mm 0 m/s 725 mmHg 98%
    06:00 +22°C° 0.3 mm 0 m/s 726 mmHg 98%
    07:00 +22°C° 0.3 mm 0 m/s 726 mmHg 98%
    08:00 +22°C° 0.3 mm 0 m/s 726 mmHg 97%
    09:00 +23°C° 1.2 mm 0 m/s 726 mmHg 98%
    10:00 +23°C° 1.2 mm 0 m/s 726 mmHg 98%
    11:00 +23°C° 1.2 mm 0 m/s 726 mmHg 98%
    12:00 +23°C° 0.4 mm 0 m/s 726 mmHg 98%
    13:00 +23°C° 0.4 mm 0 m/s 725 mmHg 97%
    14:00 +23°C° 0.4 mm 0 m/s 725 mmHg 97%
    15:00 +23°C° 1 mm 0 m/s 725 mmHg 98%
    16:00 +22°C° 1 mm 0 m/s 725 mmHg 98%
    17:00 +24°C° 1 mm 1 m/s 725 mmHg 99%
    18:00 +24°C° 0.6 mm 1 m/s 725 mmHg 99%
    19:00 +24°C° 0.6 mm 1 m/s 725 mmHg 98%
    20:00 +24°C° 0.6 mm 1 m/s 725 mmHg 98%
    21:00 +24°C° 0.1 mm 1 m/s 725 mmHg 98%
    22:00 +24°C° 0.1 mm 1 m/s 725 mmHg 98%
    23:00 +21°C° 0.1 mm 0 m/s 725 mmHg 98%

    2 Juin, Mardi

    Heure Température Précipitation Vent Pression Humidité
    00:00 +21°C° 0 mm 0 m/s 725 mmHg 98%
    01:00 +21°C° 0 mm 0 m/s 724 mmHg 98%
    02:00 +23°C° 0 mm 1 m/s 724 mmHg 99%
    03:00 +21°C° 0 mm 0 m/s 724 mmHg 98%
    04:00 +21°C° 0 mm 0 m/s 724 mmHg 98%
    05:00 +21°C° 0 mm 0 m/s 724 mmHg 98%
    06:00 +21°C° 0.6 mm 0 m/s 724 mmHg 98%
    07:00 +22°C° 0.6 mm 0 m/s 724 mmHg 98%
    08:00 +22°C° 0.6 mm 0 m/s 724 mmHg 98%
    09:00 +22°C° 1.8 mm 0 m/s 724 mmHg 97%
    10:00 +23°C° 1.8 mm 0 m/s 724 mmHg 96%
    11:00 +23°C° 1.8 mm 0 m/s 724 mmHg 96%
    12:00 +24°C° 0.2 mm 0 m/s 724 mmHg 93%
    13:00 +25°C° 0.2 mm 0 m/s 724 mmHg 91%
    14:00 +25°C° 0.2 mm 0 m/s 723 mmHg 89%
    15:00 +25°C° 0.5 mm 0 m/s 723 mmHg 91%
    16:00 +24°C° 0.5 mm 0 m/s 722 mmHg 93%
    17:00 +23°C° 0.5 mm 0 m/s 722 mmHg 95%
    18:00 +23°C° 1.4 mm 0 m/s 722 mmHg 96%
    19:00 +22°C° 1.4 mm 0 m/s 723 mmHg 97%
    20:00 +22°C° 1.4 mm 0 m/s 723 mmHg 97%
    21:00 +22°C° 1.9 mm 0 m/s 723 mmHg 98%
    22:00 +22°C° 1.9 mm 0 m/s 723 mmHg 98%
    23:00 +22°C° 1.9 mm 0 m/s 724 mmHg 99%

    3 Juin, Mercredi

    Heure Température Précipitation Vent Pression Humidité
    00:00 +22°C° 3.1 mm 0 m/s 723 mmHg 99%
    01:00 +22°C° 3.1 mm 0 m/s 723 mmHg 99%
    02:00 +22°C° 3.1 mm 0 m/s 722 mmHg 99%
    03:00 +22°C° 0.2 mm 0 m/s 722 mmHg 99%
    04:00 +22°C° 0.2 mm 0 m/s 722 mmHg 98%
    05:00 +22°C° 0.2 mm 0 m/s 722 mmHg 98%
    06:00 +22°C° 0.5 mm 0 m/s 722 mmHg 98%
    07:00 +22°C° 0.5 mm 0 m/s 722 mmHg 98%
    08:00 +22°C° 0.5 mm 0 m/s 723 mmHg 98%
    09:00 +23°C° 0.3 mm 0 m/s 723 mmHg 97%
    10:00 +23°C° 0.3 mm 0 m/s 723 mmHg 96%
    11:00 +24°C° 0.3 mm 0 m/s 723 mmHg 95%
    12:00 +24°C° 0.5 mm 0 m/s 723 mmHg 95%
    13:00 +24°C° 0.5 mm 0 m/s 722 mmHg 95%
    14:00 +24°C° 0.5 mm 0 m/s 722 mmHg 95%
    15:00 +24°C° 0.2 mm 0 m/s 722 mmHg 95%
    16:00 +23°C° 0.2 mm 0 m/s 722 mmHg 96%
    17:00 +23°C° 0.2 mm 0 m/s 722 mmHg 96%
    18:00 +23°C° 0.2 mm 0 m/s 722 mmHg 96%
    19:00 +23°C° 0.2 mm 0 m/s 722 mmHg 97%
    20:00 +22°C° 0.2 mm 0 m/s 723 mmHg 97%
    21:00 +22°C° 1.1 mm 0 m/s 723 mmHg 98%
    22:00 +22°C° 1.1 mm 0 m/s 723 mmHg 98%
    23:00 +22°C° 1.1 mm 0 m/s 723 mmHg 98%
    Voir plus